Regional Weather Roundup
Issued by NWS

Home | Current Version | Previous Version | Text Only | Print | Product List | Glossary On
Versions: 1 2 3 4 5 6 7 8 9 10 11 12 13 14 15 16 17 18 19 20 21 22 23 24 25 26 27 28 29 30 31 32 33 34 35 36 37 38 39 40 41 42 43 44 45 46 47 48 49 50
000
ASUS45 KSLC 200110
RWRUT

UTAH REGIONAL WEATHER ROUNDUP
NATIONAL WEATHER SERVICE SALT LAKE CITY UT
600 PM MST FRI JAN 19 2018

UTZ001>011-023>025-200200-

NORTHERN UTAH

CITY           SKY/WX    TMP DP  RH WIND       PRES   REMARKS
BRIGHAM CITY   CLOUDY    34  31  90 N3        29.93R
HILL AFB       LGT SNOW  31  31  99 NW22G32   29.88R FOG     WCI  18
LOGAN          LGT SNOW  35  31  85 N20       29.91S FOG     WCI  24
OGDEN          LGT SNOW  33  31  92 NW18G33   29.88R FOG     WCI  22
SALT LAKE CITY LGT SNOW  36  34  92 NW16      29.91R FOG     WCI  26
TOOELE VALLEY  MIX PCPN  32  32 100 N5        29.95R WCI  27
WENDOVER       MIX PCPN  36  27  69 N8        29.93R WCI  30
HEBER CITY     CLOUDY    50  25  37 SW13G26   29.75R
WEST JORDAN    CLOUDY    32  32 100 NW17G24   29.92R WCI  21

$$

UTZ011>015-024>027-200200-

CENTRAL/NORTHEAST UTAH

CITY           SKY/WX    TMP DP  RH WIND       PRES   REMARKS
PROVO AIRPORT  CLOUDY    37  33  85 NW24G31   29.83R WCI  26
MOAB/CANYONLAN CLOUDY    37  24  59 CALM      29.85S
DELTA          CLOUDY    48  30  49 W16       29.81R
PRICE          CLOUDY    38  21  50 NW5       29.88S WCI  34
RICHFIELD      CLEAR     55  21  26 SW12G18   29.80S
ROOSEVELT      CLOUDY    34  21  60 CALM      29.86S
VERNAL         MOCLDY    32  17  54 NW3       29.83F

$$

UTZ013>016-019>022-027-200200-

SOUTHERN UTAH

CITY           SKY/WX    TMP DP  RH WIND       PRES   REMARKS
BRYCE CANYON   CLOUDY    41  27  57 S9        29.92F
CEDAR CITY     CLOUDY    50  28  42 SW9G18    29.83F
MILFORD        CLOUDY    50  29  44 S15       29.81F
ST GEORGE      CLOUDY    61  34  36 CALM      29.81S
HANKSVILLE     MOCLDY    43  19  39 N9        29.87S
KANAB          CLEAR     55  27  33 SW10G17   29.90F
BLANDING         N/A     46  17  30 CALM      30.01F

$$

REGIONAL REPORTS     COLORADO/ARIZONA

CITY           SKY/WX    TMP DP  RH WIND       PRES   REMARKS
CRAIG, CO      MOCLDY    39  25  57 W7        29.83S WCI  34
GRAND JUNCTION CLOUDY    38  21  50 NE5       29.87S WCI  34
RIFLE, CO      CLOUDY    40  23  50 S3        29.87S
MONTROSE, CO   MOCLDY    48  21  34 E6        29.90F
CORTEZ, CO     PTCLDY    40  19  43 SE5       29.96S
COLORADO CITY    N/A     55  30  38 SW5       29.90S
PAGE, AZ       MOCLDY    50  24  36 CALM      29.86F
GRAND CANYON   PTCLDY    48  25  40 SW13      29.97S
KINGMAN, AZ    MOCLDY    61  29  29 S13       29.87F
FLAGSTAFF, AZ  PTCLDY    43  20  39 SW9       30.01F

$$

REGIONAL REPORTS    NEVADA/IDAHO/WYOMING

CITY           SKY/WX    TMP DP  RH WIND       PRES   REMARKS
LAS VEGAS, NV  CLOUDY    65  35  33 SW14G24   29.77F
ELY, NY        HVY SNOW  28  26  92 NW8       29.90R VSB 1/4 WCI  20
ELKO, NV       CLOUDY    31  27  85 CALM      29.93F
POCATELLO, ID  CLOUDY    34  28  79 SW22      29.89S WCI  22
BURLEY, ID     CLOUDY    35  27  72 SW13      29.92R WCI  26
FORT BRIDGER,  CLOUDY    32  32 100 NW16      29.82R WCI  21
EVANSTON, WY   LGT SNOW  29  28  96 NW20G30   29.81R FOG     WCI  16
ROCK SPRINGS,  CLOUDY    37  26  64 SW8       29.77R WCI  31

$$



USA.gov is the U.S. government's official web portal to all federal, state and local government web resources and services.